sat.trackr.live / text

‹ back to catalog

STARLINK-11116 [DTC]

NORAD 60045 · 2024-112H

PAYLOAD ACTIVE UNKNOWN

§ Identity

Operator
Country
US
Launch date
2024-06-08
Launch site
AFWTR
Launch vehicle
Mass (kg)
RCS (m²)

Purposes: comms

External: N2YO · Heavens-Above · Gunter

§ Orbital elements

Epoch: 2026-09-21T19:15:09.813024Z

Period
91.74 min
Inclination
53.1579°
Eccentricity
0.0001238
Mean motion
15.69688798 rev/d
Perigee alt
359.0 km
Apogee alt
360.6 km
Semi-major
6,737.9 km
B*
2.6421e-5
RAAN
19.4351°
Arg perigee
109.6428°
Mean anomaly
250.4724°
Rev number
13,178

§ Raw data

STARLINK-11116 [DTC]1 60045U 24112H   26264.80219691  .00002610  00000+0  26421-4 0  99982 60045  53.1579  19.4351 0001238 109.6428 250.4724 15.69688798131785

JSON: /api/v1/satellites/60045 · /tle

For live sub-satellite position, see the globe view (requires WebGL).

§ Visibility from observer

Set your observer location to see the next 7 days of passes ≥ 10°. The values pass through the URL so the page stays shareable.

No JS? Fill the form by hand. The geolocation button needs JavaScript.